Theta_e
314 308 306 306 306 307 311 316 319 320 322 323 323 323 324 324 325 325 325 325 321 315 311 311 312 314 314 312 310 309 309 310 310 310 311 312 311 311 312 315 316 314 312 311 311 311 312 312 313 315 316 317 317 318 317 318 318 319 331 331 321 323 321 320 322 315 316 320 313 311 314 315 316 314 314 315 315 315 315 315 316 316 317 317 318 318 316 313
313 307 307 306 306 305 306 310 313 317 319 322 323 324 324 325 326 325 324 321 316 311 311 312 313 313 312 310 309 309 309 310 310 310 312 312 311 311 312 314 315 313 311 311 311 311 312 312 313 315 317 316 316 317 317 317 316 320 329 325 325 332 321 316 318 312 313 316 312 312 314 314 316 315 314 316 315 314 315 315 315 316 317 317 317 317 317 313
312 308 308 307 306 306 306 306 308 310 314 317 320 322 323 324 324 322 319 315 311 310 312 313 312 311 310 309 309 309 309 309 309 310 312 312 312 311 312 314 314 312 312 312 311 311 312 313 313 315 316 316 316 316 316 317 316 317 321 323 330 328 316 313 314 312 314 314 312 312 312 314 314 315 315 315 314 314 315 315 315 316 316 317 316 316 316 314
311 308 308 307 307 307 307 307 306 307 308 311 313 315 317 318 317 314 312 311 310 312 313 312 311 309 309 309 309 309 309 310 310 311 312 312 313 312 313 314 313 312 312 311 311 312 314 313 313 315 316 315 315 316 316 316 315 315 320 327 324 315 314 315 313 313 314 313 313 312 313 313 313 315 314 314 315 315 314 315 316 316 315 316 315 315 316 314
311 309 309 308 308 308 307 307 307 307 307 307 308 309 310 310 310 310 310 311 312 313 312 311 310 309 308 308 308 309 310 311 311 311 311 313 314 314 314 314 312 312 312 311 312 313 314 314 314 315 315 314 314 315 316 315 315 315 316 318 314 311 315 315 313 315 314 313 313 311 313 314 314 314 314 314 318 318 315 315 316 316 315 315 315 315 315 315
311 309 309 308 308 308 308 308 308 308 308 308 308 308 308 309 310 311 311 312 312 312 311 310 309 309 308 308 308 309 311 311 312 312 311 314 315 314 313 313 312 312 312 311 312 314 314 314 314 314 314 314 314 314 315 313 314 317 315 312 312 312 314 314 314 314 313 313 313 311 313 314 313 314 313 313 316 316 314 315 316 315 315 315 315 315 315 315
311 309 309 309 308 308 308 308 308 309 309 309 309 309 310 310 311 311 311 311 311 311 310 309 309 309 309 308 308 310 311 312 314 313 312 314 314 314 313 312 312 312 312 311 312 314 315 314 314 314 314 314 313 312 314 314 314 319 318 312 313 313 313 314 314 313 313 314 313 313 314 313 313 314 313 312 314 314 314 315 316 315 315 315 315 314 314 315
310 309 308 309 309 309 308 309 309 309 309 310 310 310 310 310 310 311 311 310 310 310 309 309 309 309 308 308 307 311 313 312 314 314 313 314 314 313 312 312 312 312 312 311 312 314 314 314 314 313 314 313 313 313 313 314 313 318 318 312 313 314 313 314 314 313 313 314 314 314 314 314 314 313 312 313 315 315 314 316 316 316 315 315 315 314 314 314
309 310 309 308 309 309 309 309 309 309 310 310 310 310 310 310 310 310 310 310 310 310 309 309 309 309 308 308 308 311 313 311 313 315 314 314 313 313 313 312 312 312 312 312 311 313 314 314 314 315 314 313 314 314 313 315 314 315 314 313 312 313 313 313 314 314 314 314 314 314 314 314 313 313 314 315 315 315 315 315 316 316 316 316 315 315 315 315
309 309 309 308 308 309 309 309 309 310 310 310 310 310 310 310 310 310 310 310 310 309 309 309 309 309 308 308 309 310 311 311 312 314 315 315 313 313 313 312 312 312 312 312 311 312 314 315 315 315 315 314 313 313 313 314 315 314 312 312 313 312 313 313 313 314 314 314 314 315 315 314 313 314 316 316 315 315 315 315 316 316 316 316 316 315 316 315
309 309 309 309 308 308 309 309 309 309 310 310 310 310 310 310 310 310 310 310 310 309 309 309 309 309 308 309 310 310 311 312 312 314 315 314 313 313 314 313 314 313 312 312 312 313 314 315 315 315 316 315 314 313 313 313 314 313 313 314 313 312 313 313 314 313 314 314 313 315 313 313 314 314 316 315 315 315 315 315 315 315 316 315 316 316 316 316
310 309 309 309 309 308 308 309 309 309 310 310 310 310 310 310 310 310 310 310 309 309 309 309 309 309 308 309 310 311 314 314 313 314 314 314 314 314 315 315 315 314 313 313 313 314 315 315 315 316 316 314 315 315 314 314 314 313 314 317 317 318 317 313 313 313 314 315 314 313 313 314 316 316 316 315 315 316 315 315 315 315 315 315 315 315 315 316
310 310 309 309 309 308 308 308 308 309 309 310 310 310 310 310 310 310 310 310 309 309 309 309 309 309 308 308 309 310 315 317 314 314 314 314 314 314 315 315 316 315 314 314 315 315 315 316 316 316 315 314 315 314 315 313 313 315 314 319 321 320 319 313 311 314 314 314 314 312 314 320 321 316 314 315 315 315 315 315 315 315 315 315 315 315 316 315
311 310 309 309 309 309 308 308 308 308 309 309 309 309 310 310 310 310 310 309 309 308 309 309 308 308 308 309 310 310 314 317 315 314 314 314 314 314 314 315 316 316 315 315 316 315 316 317 316 316 314 315 315 314 317 314 315 317 313 320 323 316 320 317 311 313 315 314 314 313 314 321 323 315 313 315 314 314 315 315 315 316 316 316 316 315 316 315
312 311 310 309 309 309 308 308 308 308 308 309 309 309 310 309 310 310 310 309 308 308 308 308 308 308 309 309 310 311 312 315 315 314 314 314 313 313 314 315 315 316 316 315 315 316 316 316 316 316 314 315 315 315 320 319 321 323 315 321 321 313 322 322 312 312 315 315 313 314 316 320 320 314 313 316 315 315 315 315 315 316 316 316 316 316 316 316
313 312 311 310 309 309 308 308 308 308 308 308 309 309 309 309 310 309 310 309 308 307 307 308 308 308 308 309 311 312 312 313 315 314 314 313 313 314 314 314 315 315 316 315 315 316 316 316 316 315 314 315 316 318 322 321 324 325 319 322 321 316 320 320 314 311 312 315 313 313 317 321 319 314 315 316 316 315 315 315 315 315 317 317 317 316 316 316
314 313 312 311 310 309 308 308 308 308 308 308 308 309 309 309 309 309 309 309 307 306 306 308 308 308 309 310 313 314 312 313 314 313 313 313 313 314 314 315 315 315 315 315 315 315 316 316 315 315 315 313 316 319 320 317 320 321 319 321 321 319 318 320 319 312 310 314 316 315 316 320 319 314 315 316 315 315 314 315 316 316 317 317 317 317 317 317
314 314 314 312 310 309 308 308 308 308 308 308 308 308 308 309 309 309 308 307 306 306 307 309 309 310 311 310 313 314 312 313 313 313 313 313 314 314 315 315 315 315 315 315 315 315 316 314 314 318 318 314 315 318 319 318 318 318 318 318 317 316 316 319 321 315 312 315 316 317 317 320 320 314 314 316 315 314 314 315 315 316 316 316 316 316 317 317
315 315 314 313 311 310 309 308 308 308 308 308 308 308 307 308 308 307 306 305 307 308 309 311 309 311 313 310 312 314 313 313 313 313 313 314 314 314 315 315 315 316 315 315 316 315 315 314 315 319 319 316 316 316 319 322 321 319 321 323 323 321 319 319 320 313 312 317 318 318 318 319 320 316 314 315 314 312 313 314 314 315 315 315 315 315 315 315
315 315 315 313 312 311 309 309 308 308 308 308 307 307 307 308 309 309 308 307 309 310 310 311 309 311 314 310 311 315 313 313 313 313 313 313 314 315 314 314 315 315 315 318 318 314 315 317 317 318 318 317 317 316 316 318 319 318 321 325 324 323 320 317 317 312 309 316 319 316 318 318 319 318 313 312 313 310 311 312 314 316 316 315 315 315 315 314
315 315 315 314 312 311 310 309 308 308 308 308 307 307 308 308 309 311 310 308 310 311 311 311 309 310 313 310 312 315 313 313 313 313 313 313 315 315 314 315 315 316 315 315 316 314 315 318 318 319 316 315 316 316 316 317 318 318 320 323 320 319 320 315 315 316 311 314 319 316 318 319 318 317 312 311 312 311 311 312 313 314 314 315 315 313 313 314
315 314 314 314 313 311 310 309 309 308 308 307 307 307 308 308 310 310 309 308 309 311 311 311 310 311 313 311 313 315 313 314 313 313 314 313 315 314 314 316 316 317 314 313 315 316 316 319 319 315 310 311 313 315 319 321 323 322 320 321 321 318 319 316 315 318 314 314 321 321 321 320 317 317 313 310 311 313 313 312 312 313 313 314 313 312 312 313
315 316 315 314 313 312 310 309 309 308 308 307 307 308 308 309 311 310 308 308 308 309 311 312 311 311 313 312 314 315 313 314 313 313 314 314 315 314 314 315 317 318 315 316 318 317 317 320 317 309 306 312 315 315 319 321 322 323 321 320 321 318 319 319 317 318 315 313 319 321 319 317 316 317 316 311 310 312 312 313 313 313 314 315 314 312 313 314
316 316 316 315 314 312 311 309 309 308 308 307 307 308 308 309 311 310 307 307 307 309 311 312 311 311 313 313 314 314 313 313 313 313 313 314 315 314 314 314 316 318 316 317 317 317 319 316 309 307 310 316 316 315 318 319 317 319 327 330 327 323 322 320 317 317 316 314 317 317 316 323 324 323 325 318 310 310 312 313 315 315 315 316 315 314 315 316
315 316 316 315 314 313 311 310 309 308 307 307 307 308 308 309 311 309 308 308 307 309 310 312 312 312 312 313 314 314 313 313 314 313 313 314 315 314 314 313 315 317 317 316 315 317 316 310 308 312 316 318 318 317 318 321 317 315 324 330 327 330 327 321 320 319 318 316 314 312 315 331 335 327 328 325 315 313 312 309 312 315 314 312 315 315 316 316
316 315 315 315 313 312 311 310 309 308 307 307 308 308 308 310 311 308 310 312 310 310 309 310 312 312 312 314 315 314 313 314 314 314 314 314 315 314 314 313 313 316 315 313 314 316 314 310 313 319 321 319 317 317 316 319 320 315 318 320 323 331 327 322 319 316 319 316 310 311 314 322 326 322 322 321 318 318 315 309 310 313 312 310 312 314 316 317
316 315 315 314 313 312 311 309 309 308 307 307 308 309 308 309 310 308 311 313 312 311 309 309 310 312 313 314 314 314 315 316 314 314 314 314 314 314 315 315 313 314 312 312 316 315 315 315 316 321 325 321 318 318 316 318 320 315 316 319 325 329 326 326 324 320 322 316 314 319 319 316 319 320 320 318 319 321 321 320 315 310 310 311 312 315 316 316
314 315 315 314 313 312 311 309 308 308 307 308 308 309 308 310 310 309 312 312 310 310 309 309 310 311 313 314 314 313 315 316 315 315 314 314 314 313 315 315 315 317 311 311 318 314 314 320 319 321 326 321 320 320 316 321 325 318 315 319 324 326 327 330 331 329 322 313 318 324 316 315 323 326 323 316 316 320 322 325 317 309 311 313 313 316 317 317
314 315 315 315 313 313 311 309 308 308 308 308 309 308 309 310 309 309 311 309 309 309 308 309 310 312 313 313 313 312 313 314 314 315 313 314 315 313 315 313 312 317 311 312 321 316 313 317 316 319 323 320 320 318 314 323 327 316 312 317 319 322 326 328 329 327 317 313 323 325 313 313 321 329 327 316 315 321 323 324 315 308 312 314 315 316 317 318
316 315 315 314 313 312 310 308 308 308 309 309 309 309 309 311 310 308 307 308 311 310 307 308 310 311 313 313 312 312 313 314 313 314 313 314 314 312 313 312 311 319 319 319 324 318 312 312 312 314 317 316 316 314 312 317 316 311 317 322 320 324 327 328 329 322 313 317 325 321 314 313 315 325 329 319 318 322 321 323 318 311 312 315 316 317 317 319
316 315 314 314 313 312 310 308 308 308 309 311 311 311 310 312 312 309 307 310 314 311 307 308 310 312 314 314 313 313 315 314 312 314 315 314 314 312 312 313 313 319 322 322 322 317 314 315 314 313 312 312 315 317 313 311 310 314 325 325 320 324 325 325 329 321 315 323 322 316 315 313 313 324 331 323 321 320 317 321 323 315 313 316 318 318 319 319
314 314 313 313 313 311 309 308 307 308 310 312 312 310 310 311 311 310 309 310 313 312 310 310 310 313 314 313 314 314 316 316 312 313 317 317 316 315 314 316 318 318 318 319 321 318 318 318 314 312 312 312 320 323 316 314 317 319 324 323 319 322 320 321 327 321 319 321 315 314 317 314 315 321 323 323 322 320 313 313 317 313 312 317 320 319 318 318
313 313 312 312 312 311 309 308 307 309 312 313 311 310 312 312 310 310 312 311 312 312 311 311 311 313 314 312 314 315 316 316 313 313 315 317 316 315 316 317 319 320 319 320 321 319 321 321 316 315 315 313 317 322 319 319 321 319 319 321 321 321 317 320 324 317 317 320 314 313 316 317 319 317 317 321 317 314 310 308 312 313 312 316 319 320 318 317
313 312 312 311 310 309 309 308 308 310 313 312 310 309 313 313 310 310 311 311 312 312 311 313 312 312 313 312 314 315 314 314 314 314 315 316 316 315 316 314 314 322 323 319 320 319 320 321 320 318 317 315 316 318 321 323 319 317 317 317 318 324 324 323 324 320 320 322 316 313 316 323 324 315 314 314 309 309 312 311 312 313 314 315 317 320 319 317
312 312 311 310 308 309 309 309 310 312 313 311 309 309 310 310 310 311 309 310 314 314 312 312 312 312 312 312 313 313 314 315 314 315 316 316 316 315 316 313 313 321 322 316 317 317 316 318 319 314 311 315 317 314 316 321 319 316 314 313 315 322 325 320 315 317 319 319 317 315 319 326 322 314 313 310 308 311 311 311 313 314 314 314 315 319 319 318
311 311 311 309 308 310 310 310 311 313 312 310 309 309 310 309 311 313 310 312 316 314 311 312 313 313 312 311 313 312 312 316 315 315 315 315 315 314 314 313 313 315 316 317 318 316 315 316 315 313 311 313 314 311 311 315 318 316 314 317 318 316 323 320 310 310 313 314 317 316 319 322 317 314 317 314 314 315 312 310 312 314 315 314 314 317 319 319
312 311 310 308 309 311 311 310 312 313 312 310 309 310 309 308 312 313 312 313 314 312 311 313 312 314 312 311 314 314 313 316 315 314 315 314 315 315 314 313 312 312 313 316 318 318 319 318 314 315 316 311 309 310 310 309 314 319 319 319 315 310 318 321 315 317 318 316 318 316 315 319 316 316 321 316 314 317 317 315 312 312 313 313 314 316 318 318
312 311 310 309 310 312 311 311 312 312 312 310 310 312 311 308 309 310 311 311 312 313 314 314 313 313 313 311 313 313 313 315 315 315 315 313 315 315 314 314 312 311 310 310 312 316 319 319 314 313 316 313 311 314 315 311 311 317 318 314 315 317 319 317 315 320 320 316 321 321 314 314 314 317 322 317 316 321 320 317 316 314 312 311 312 314 315 316
312 312 311 309 310 312 311 311 312 312 312 311 310 312 312 309 307 309 311 310 312 314 314 315 315 312 311 312 313 312 313 314 314 315 314 313 314 313 312 313 312 310 308 309 312 313 315 316 314 312 313 313 314 316 318 318 312 312 312 310 316 323 321 318 315 316 317 315 319 322 319 317 316 317 320 315 318 323 321 321 319 312 310 311 312 312 313 313
312 312 312 310 310 312 311 311 312 312 312 311 310 310 310 309 307 308 310 311 312 314 314 317 316 313 312 312 312 312 313 313 313 314 313 312 313 312 310 312 313 311 308 308 312 314 313 312 312 313 312 313 317 318 317 319 316 314 316 314 316 317 317 318 316 314 318 319 319 319 318 322 323 318 316 315 318 319 318 322 318 310 311 314 313 313 314 313
312 313 313 311 310 311 311 311 312 312 312 312 310 310 311 310 307 308 310 312 312 312 315 318 316 314 315 313 312 312 313 314 313 313 313 311 312 312 311 310 312 312 310 309 312 315 314 312 315 317 316 316 318 315 313 317 317 315 316 316 317 316 316 317 315 313 315 316 320 319 314 321 328 320 316 319 319 313 310 311 312 311 314 315 314 316 316 315
311 312 313 312 311 310 310 312 311 311 312 312 310 310 312 311 309 308 309 311 313 312 313 316 315 314 314 312 312 313 314 314 313 313 314 312 312 313 311 309 310 310 311 312 313 312 312 316 321 321 318 318 315 310 307 311 315 315 315 316 317 316 315 318 319 317 315 312 315 317 315 318 321 315 314 316 312 308 307 307 310 314 315 316 317 317 317 317
309 310 312 313 311 311 311 312 311 311 312 311 309 309 310 311 312 311 309 310 312 313 313 314 314 312 313 315 313 312 313 314 313 314 315 313 312 312 310 309 310 310 311 313 313 310 311 317 319 318 319 319 317 313 308 308 312 315 317 317 317 316 319 325 324 320 318 316 315 315 315 317 317 311 307 307 306 308 310 311 313 316 317 317 318 317 317 317
307 308 311 313 312 311 311 311 311 311 311 309 309 310 310 311 312 313 313 313 313 314 316 316 313 311 315 318 315 312 313 313 313 313 314 315 313 311 309 309 311 311 311 313 313 310 312 316 317 316 319 319 318 319 317 314 314 316 318 317 317 319 320 320 318 314 316 320 319 318 316 317 320 318 311 311 312 311 310 312 314 316 317 317 317 316 316 315
306 307 309 311 313 312 311 311 310 310 311 310 310 311 311 310 310 311 314 315 313 315 316 315 312 312 317 317 313 312 313 314 317 314 312 316 315 310 309 310 310 310 310 311 311 310 313 317 316 315 316 315 316 317 318 317 315 315 318 317 316 318 318 316 316 316 316 318 318 317 316 314 316 318 316 318 319 315 311 313 315 314 315 317 317 316 316 315
307 307 307 308 310 311 310 310 308 309 311 311 310 311 312 311 310 309 312 313 312 312 313 313 312 312 315 315 313 313 313 313 318 316 312 316 318 312 308 309 310 309 310 310 309 313 319 318 314 313 313 313 313 315 319 321 318 316 318 318 316 316 316 316 318 318 316 317 316 314 315 314 314 316 317 319 322 322 316 312 314 315 315 316 316 315 315 315
308 308 307 307 308 308 307 307 308 308 309 310 310 311 310 311 311 310 311 311 312 313 314 313 314 313 314 315 314 315 314 312 315 316 314 313 316 314 309 309 310 309 310 310 309 315 322 317 313 314 313 312 312 316 319 320 319 318 317 317 316 315 315 316 317 316 316 317 316 313 314 314 314 316 319 321 323 323 315 310 313 316 315 315 316 315 315 314
308 308 307 308 308 307 306 306 306 307 308 309 310 311 310 310 311 311 312 311 311 313 314 314 316 317 316 315 315 315 315 313 313 316 315 313 314 315 313 311 310 309 311 311 309 314 318 315 313 314 313 312 313 318 320 318 317 318 316 316 316 315 315 316 315 315 316 315 315 314 316 316 313 313 317 318 316 315 313 312 313 314 314 315 314 314 314 314
306 307 307 308 307 306 306 306 304 305 307 308 310 311 310 310 310 311 312 313 311 312 313 315 317 319 318 316 316 316 315 314 314 315 315 314 315 317 317 315 313 310 311 313 310 310 314 318 317 314 312 313 313 317 320 318 317 317 316 315 315 314 314 315 315 315 315 315 315 315 316 316 313 312 314 313 311 310 311 312 312 312 313 313 313 313 314 313
305 306 306 307 307 305 305 306 305 305 306 307 308 309 309 310 310 310 311 312 313 313 313 314 316 317 316 316 316 317 316 315 316 316 315 315 315 316 318 318 316 312 311 313 312 308 312 319 319 314 313 314 313 315 318 318 316 317 316 315 314 314 314 314 314 315 314 314 315 315 315 315 312 311 311 311 311 310 310 310 310 312 313 312 312 313 313 313
304 305 305 306 308 306 305 306 305 305 306 306 307 309 309 309 310 310 311 311 311 312 313 314 315 315 315 315 316 317 316 314 315 315 314 314 314 315 315 315 316 316 314 314 314 312 313 317 317 315 315 316 315 315 315 313 313 314 315 315 314 313 314 313 313 314 314 315 315 315 315 314 312 311 310 309 309 308 308 309 311 312 312 311 311 312 313 313
302 304 304 305 307 307 306 306 305 306 307 306 307 308 308 309 310 310 311 310 309 310 311 312 313 314 315 315 316 316 313 312 313 313 312 312 312 312 312 311 312 316 316 315 315 316 315 316 318 318 317 316 316 316 313 312 312 313 314 314 313 312 313 313 313 313 313 314 315 315 314 314 313 312 312 312 310 308 309 310 311 311 311 311 311 312 313 313
Wind_Speed
21 24 24 23 24 25 26 28 28 29 29 30 30 29 28 28 27 25 24 23 21 21 20 19 18 16 15 14 14 14 14 13 13 14 14 13 13 12 13 13 11 11 12 11 10 9 10 10 11 12 11 10 9 12 11 7 7 4 3 4 1 3 4 5 7 8 4 4 8 12 16 11 5 10 12 8 6 9 12 11 9 13 12 7 8 5 13 21
21 24 23 22 23 24 25 27 27 29 29 30 30 29 28 28 27 25 24 23 22 21 20 20 18 17 15 14 14 14 13 13 13 15 14 12 13 14 14 14 11 11 11 11 10 9 11 11 12 13 12 10 8 11 10 6 6 3 3 3 3 5 5 5 7 8 4 2 9 13 14 13 9 12 14 7 4 8 9 8 9 12 12 10 9 8 15 21
22 22 22 22 23 24 25 26 26 28 28 29 29 29 29 28 27 25 24 24 23 22 21 20 18 17 16 15 14 13 13 12 13 15 14 12 13 14 15 16 13 11 12 10 10 10 11 12 12 13 12 9 7 10 9 6 5 2 4 3 5 7 4 4 5 8 7 4 9 13 11 10 10 14 13 8 5 5 7 10 10 12 14 12 10 11 16 21
22 22 22 22 23 24 25 25 25 26 26 27 27 28 28 27 27 25 25 24 24 22 21 20 19 18 16 15 14 13 11 7 11 15 13 13 14 14 15 16 14 12 12 11 11 12 11 12 13 13 10 7 6 9 8 6 6 2 5 3 5 6 2 4 4 4 8 7 11 13 9 7 10 13 12 9 6 3 11 17 17 15 16 15 13 13 17 21
23 22 22 23 24 24 25 25 25 25 25 25 25 25 26 26 26 25 24 24 23 22 21 20 19 18 15 15 13 12 9 1 8 16 13 14 14 14 15 15 15 14 12 12 12 13 12 12 13 11 7 4 5 6 5 6 7 4 2 2 4 6 2 3 2 1 7 9 11 12 9 7 9 11 13 13 8 7 14 19 19 16 15 16 15 15 17 20
23 22 22 23 24 25 25 25 25 25 24 24 23 24 24 25 25 24 24 23 23 22 21 20 19 17 15 14 13 13 12 2 4 14 15 15 14 14 16 15 15 15 13 13 14 13 11 12 13 10 5 3 4 4 5 8 7 3 1 1 4 5 2 1 1 2 6 12 15 13 9 8 9 8 12 16 15 12 9 12 17 17 14 16 17 17 18 20
23 23 23 23 25 25 26 26 25 25 24 24 23 23 24 24 24 23 23 22 22 22 20 20 19 17 15 14 14 14 17 8 2 13 17 16 16 15 16 15 15 15 15 14 15 15 12 12 12 10 6 3 3 3 6 9 5 3 2 2 3 4 3 2 2 4 7 12 16 13 9 7 9 6 7 15 21 16 9 8 12 17 17 16 17 19 19 19
23 23 23 23 25 25 26 26 25 25 24 24 23 24 24 23 23 23 23 22 21 21 20 21 19 18 15 14 15 13 18 14 3 10 17 16 16 16 16 15 15 15 15 14 15 16 13 12 12 10 4 2 5 5 7 7 2 3 4 4 5 3 4 3 4 6 7 9 12 11 8 6 7 4 4 14 19 16 14 11 9 13 17 18 18 19 19 19
25 23 23 23 24 25 26 26 26 26 25 25 24 23 23 23 23 22 21 21 21 20 20 21 19 18 15 14 14 9 15 18 7 8 16 16 15 16 16 15 15 15 15 14 15 16 14 13 14 11 4 4 7 6 9 7 1 3 6 7 6 3 4 5 5 7 8 8 10 8 4 4 5 2 7 14 16 15 15 14 12 11 14 17 18 18 19 20
25 24 23 23 24 25 26 26 26 26 25 25 24 23 23 22 22 21 20 20 20 20 20 20 19 17 15 14 12 6 13 19 11 9 15 16 14 14 15 14 14 14 14 15 15 15 15 13 14 11 4 6 8 6 8 5 3 7 10 10 7 4 3 3 4 6 7 7 7 7 3 3 3 1 6 8 8 13 17 17 16 13 13 14 15 16 18 19
24 24 24 23 24 24 24 25 25 26 25 25 24 23 22 21 21 20 19 19 19 20 20 20 19 17 15 14 13 8 12 17 12 10 14 15 13 13 14 13 13 13 13 15 14 14 14 12 13 11 3 6 9 5 4 4 6 13 14 10 6 4 2 1 3 4 5 5 3 6 3 2 1 2 10 8 4 8 15 18 19 18 16 15 15 15 17 19
23 24 24 24 24 23 24 25 25 25 25 25 24 23 22 20 20 19 18 19 19 19 20 20 18 17 14 14 16 12 10 13 12 11 14 14 14 14 13 13 12 12 12 13 12 12 12 11 13 9 4 9 9 4 4 7 10 12 11 5 6 7 3 1 1 2 2 3 2 5 2 3 3 8 15 10 6 6 10 16 19 20 20 20 19 18 18 19
23 23 24 24 23 23 24 24 24 25 25 25 24 23 21 20 19 18 18 18 18 18 19 19 18 16 13 11 15 15 9 11 13 13 15 15 14 13 13 12 11 11 12 11 11 12 11 10 10 9 9 12 6 5 9 9 10 7 4 4 3 6 4 2 1 1 2 2 2 4 2 6 7 15 16 8 8 8 9 14 18 20 21 22 22 21 21 20
22 22 23 24 23 23 24 24 24 25 26 25 24 23 21 20 18 18 17 17 17 17 17 18 17 15 13 10 10 14 12 10 14 15 16 17 15 13 13 12 12 11 10 10 11 12 10 8 9 9 10 10 9 12 8 5 5 3 2 3 3 1 4 5 1 2 4 1 1 5 2 7 8 12 10 9 12 13 14 16 17 19 20 22 23 23 24 23
21 21 22 23 24 24 24 24 24 25 25 25 24 23 21 20 18 17 16 16 16 16 16 17 16 13 10 9 8 12 15 11 15 18 17 17 15 14 13 13 12 11 9 10 12 12 9 9 9 8 9 11 15 12 4 4 4 3 3 1 3 3 5 7 1 5 5 1 0 5 2 7 8 9 3 5 10 12 16 17 16 18 18 20 22 23 24 23
20 20 21 22 23 25 24 24 24 24 25 25 24 23 21 20 18 16 15 15 15 15 15 14 16 12 4 6 8 10 15 14 16 20 18 17 15 14 14 13 12 11 9 10 12 12 11 10 9 9 10 11 10 7 4 4 3 4 3 2 2 3 3 5 2 4 3 2 1 2 2 3 5 6 1 2 2 4 10 14 14 16 17 18 20 22 23 23
20 19 20 21 23 24 25 25 25 25 25 24 24 22 21 20 17 16 14 14 13 13 14 12 14 12 5 6 8 10 15 16 18 21 19 17 15 13 14 13 11 11 11 11 12 13 11 9 9 7 5 4 3 5 5 1 3 2 2 2 3 3 3 2 3 3 1 2 1 1 2 6 7 8 7 4 5 6 10 14 14 15 17 19 20 22 23 23
20 19 20 21 22 24 25 25 25 25 24 23 22 21 21 19 17 16 14 15 14 13 12 12 13 8 7 11 9 9 16 17 19 21 19 18 15 14 14 12 12 13 12 11 10 11 8 5 6 4 3 3 2 5 5 5 5 5 3 3 2 2 3 3 3 3 1 2 2 1 2 10 11 13 18 19 14 14 17 19 20 22 23 24 25 26 26 26
20 19 19 21 22 23 25 26 26 24 24 23 21 21 21 19 17 15 16 18 16 10 5 12 18 6 3 12 14 11 16 18 20 21 19 18 16 15 14 12 14 15 13 8 5 6 6 4 5 3 2 4 6 6 6 7 8 9 7 5 5 4 4 5 4 4 1 3 3 5 5 8 11 11 17 24 19 15 20 22 25 27 29 30 31 32 31 31
21 19 19 20 21 23 24 26 25 24 24 23 23 23 19 18 12 8 16 20 17 8 1 11 24 9 6 9 19 14 15 19 21 22 20 18 17 16 13 12 13 11 7 5 4 3 4 4 3 5 7 8 8 6 6 5 7 8 6 5 4 4 3 3 2 5 1 4 4 4 5 8 11 11 16 26 21 15 21 25 28 32 33 35 36 37 35 34
21 19 19 20 21 23 24 26 24 25 25 23 27 24 18 19 11 6 14 14 13 9 2 7 25 17 5 7 19 16 15 18 20 23 20 18 18 15 11 10 9 5 1 3 5 2 4 5 7 7 8 7 6 7 7 7 7 6 6 6 2 2 3 2 1 4 3 1 3 3 3 9 11 11 16 23 17 16 23 24 28 33 34 37 38 36 33 31
21 19 19 19 20 21 23 25 24 25 26 25 31 25 19 23 16 13 17 9 11 11 2 7 22 17 6 6 16 16 15 12 14 22 21 19 19 13 9 7 5 4 1 3 6 3 2 4 8 7 6 7 6 5 8 7 7 5 4 6 3 2 2 3 3 4 5 0 3 5 5 9 11 10 15 21 18 22 28 24 26 30 32 38 36 30 27 26
22 20 20 19 19 20 22 25 24 26 28 28 33 26 20 24 15 15 19 8 9 14 7 10 19 16 7 8 16 15 12 9 11 20 21 20 19 13 10 7 5 5 3 4 6 5 3 5 6 7 9 9 6 4 8 7 5 4 4 5 3 2 1 1 3 4 4 2 1 3 5 8 8 6 12 21 23 25 27 24 28 30 32 37 32 25 24 23
25 22 22 20 19 20 22 25 25 27 30 30 32 27 22 24 17 15 16 4 3 11 10 12 17 18 12 9 16 15 10 9 11 19 23 22 19 12 9 8 6 5 4 5 8 8 5 5 4 10 7 8 7 4 7 7 2 1 3 6 4 3 4 3 1 2 3 4 3 4 5 7 5 5 7 11 11 14 17 17 22 24 24 26 24 20 19 19
28 26 23 21 20 21 22 24 27 28 30 31 31 26 22 23 19 17 12 4 1 6 8 11 12 16 16 11 15 15 9 8 10 19 25 23 20 12 7 7 6 4 4 5 7 6 4 2 7 9 4 6 8 5 6 7 3 1 3 6 7 7 7 3 2 4 4 4 4 4 3 6 5 5 7 6 6 8 10 10 18 23 17 13 11 9 9 10
29 28 26 24 22 23 24 23 26 30 31 33 31 25 24 23 20 19 10 5 1 3 5 11 9 12 17 12 15 14 5 5 9 19 25 22 19 12 7 5 3 3 6 5 5 3 2 1 5 7 6 7 7 4 5 6 6 2 4 5 7 7 8 6 4 4 1 2 3 4 2 5 7 5 8 7 8 11 12 11 21 28 19 10 8 8 7 4
30 29 26 26 25 26 26 23 27 32 31 32 31 26 25 25 22 17 8 6 3 5 7 9 8 11 15 13 18 14 2 5 9 16 24 21 17 12 7 4 2 2 5 5 2 1 1 3 5 6 7 6 6 4 5 6 8 3 3 6 8 8 8 6 6 4 2 3 4 4 3 2 6 7 7 6 7 10 12 12 18 22 17 10 8 6 4 2
30 30 27 26 26 24 23 23 29 35 32 29 31 28 25 26 22 13 6 2 3 5 6 8 9 13 13 15 21 11 5 12 9 10 22 20 14 9 5 6 5 4 2 4 4 3 1 4 4 5 6 4 4 4 5 8 6 3 3 7 7 7 7 5 6 4 1 1 4 4 2 2 6 7 5 4 5 9 11 11 12 16 15 8 3 2 4 6
29 30 29 26 23 20 20 23 30 34 29 28 32 28 25 26 19 8 3 2 3 4 4 9 11 12 13 16 16 7 7 9 4 10 20 17 12 6 3 6 9 7 4 4 5 2 2 2 4 6 6 4 3 1 3 5 3 5 7 8 6 6 6 5 5 4 3 2 5 5 2 2 5 7 4 2 3 7 9 8 9 13 13 4 3 5 8 10
31 30 28 26 22 21 23 25 28 30 26 29 32 28 28 24 12 5 3 4 3 3 4 9 10 10 13 11 5 3 5 2 4 13 14 10 10 6 6 8 8 8 5 7 4 1 2 1 1 3 3 5 5 4 2 2 6 11 8 7 7 6 5 4 3 4 3 3 6 6 3 1 3 6 4 3 4 6 5 6 8 9 9 4 7 9 12 14
32 30 26 25 24 23 26 27 28 29 27 29 30 29 27 14 4 4 6 3 2 2 3 4 5 7 14 12 5 3 3 2 5 13 8 4 6 5 7 6 4 6 3 4 3 4 4 3 1 1 1 5 7 6 5 5 7 9 5 5 5 4 4 4 4 3 1 5 6 5 2 2 4 6 5 5 7 6 5 5 7 8 9 6 11 14 17 17
28 27 23 23 23 23 27 28 29 30 29 29 31 31 21 5 1 5 4 2 3 3 5 5 4 6 11 10 6 4 3 2 4 7 5 4 4 4 4 5 4 4 1 3 1 3 3 1 2 3 1 4 6 5 5 5 4 5 5 6 5 2 2 2 3 0 3 6 4 3 1 2 6 7 8 10 10 8 8 8 9 9 8 7 15 18 19 18
26 23 22 21 21 24 27 26 29 32 31 33 32 23 10 3 7 8 5 3 3 2 6 7 4 5 10 9 5 4 3 2 4 3 2 4 4 4 3 2 5 5 3 5 4 2 1 4 3 2 2 5 5 6 4 1 0 4 5 5 4 3 2 2 4 2 4 4 3 3 2 3 5 5 8 13 10 7 8 11 12 12 8 4 13 18 19 17
27 23 21 20 20 23 25 26 31 33 34 36 27 13 5 5 8 9 8 5 2 1 3 5 6 7 8 6 5 6 4 0 3 4 2 4 5 5 5 4 3 5 4 4 3 5 4 4 4 3 2 5 5 4 6 6 3 3 3 5 5 5 5 4 4 3 4 3 3 4 2 3 3 3 7 12 13 13 13 14 12 12 10 2 8 14 17 16
24 21 19 19 22 25 24 29 33 32 36 33 17 6 8 9 7 7 9 5 2 1 3 4 8 9 6 1 1 6 3 1 3 4 3 5 6 7 6 5 5 4 6 5 2 3 4 4 4 2 1 6 5 2 4 7 3 2 2 5 3 4 5 3 3 5 3 1 2 2 3 5 4 5 9 10 12 14 15 14 10 9 10 6 5 10 15 14
21 20 19 20 26 27 25 31 31 30 35 26 9 7 10 9 6 6 7 5 4 6 7 5 4 6 5 1 1 6 0 2 5 4 4 4 3 6 7 6 7 6 6 7 3 2 3 3 5 4 2 2 1 1 3 3 3 2 3 3 5 4 7 5 2 1 3 1 3 1 4 5 4 6 9 7 8 11 12 12 12 10 8 9 8 11 16 14
24 21 20 23 28 26 26 31 28 27 30 17 7 10 9 8 6 4 5 7 8 10 10 5 2 4 7 3 4 8 2 2 4 3 4 3 2 6 7 4 7 10 8 5 2 3 5 1 4 2 1 2 2 3 5 4 3 5 3 5 4 2 4 4 2 2 4 3 4 1 5 5 2 4 7 5 5 10 9 10 14 14 11 9 8 12 16 13
26 21 18 23 28 26 27 29 24 25 22 9 8 11 6 5 4 4 9 10 9 9 7 6 4 4 7 7 6 8 6 4 5 4 4 3 5 7 9 5 6 12 12 5 1 3 5 2 4 2 2 3 4 3 3 5 4 4 5 4 4 3 2 2 2 2 1 3 4 4 4 4 4 5 5 2 6 8 9 9 11 14 13 9 7 10 12 13
26 21 15 22 28 26 27 26 23 23 15 5 10 10 3 4 3 5 16 14 8 7 5 5 3 2 5 8 7 8 7 7 8 6 4 4 5 6 11 8 4 11 15 8 3 3 4 3 3 2 1 2 3 1 4 1 3 4 3 3 3 2 4 3 3 4 3 3 3 4 4 3 6 6 6 9 9 8 8 7 7 12 14 10 8 10 11 13
27 16 9 22 30 26 25 23 19 16 9 7 12 6 0 4 2 6 18 16 6 4 4 4 4 4 5 4 4 7 6 6 9 7 5 6 5 4 8 10 5 9 12 6 3 3 3 3 4 2 3 1 2 3 6 7 5 3 3 4 2 1 2 2 1 2 4 4 3 2 4 6 6 4 8 10 9 8 8 6 7 11 12 9 6 5 5 7
23 10 7 24 32 28 27 20 11 9 6 8 10 2 1 2 2 6 14 11 3 2 4 5 6 6 6 4 4 5 5 4 7 6 4 6 7 5 9 13 10 10 8 3 2 4 3 3 5 2 0 4 4 3 4 6 6 6 6 7 7 4 4 3 2 1 2 3 4 3 4 8 6 4 7 7 7 7 7 7 8 8 6 3 1 3 3 4
10 3 9 28 34 32 28 14 3 5 4 5 5 2 2 1 3 6 8 6 2 1 3 5 5 4 5 6 6 7 7 5 6 6 4 8 10 6 8 15 18 18 13 5 3 4 4 4 5 3 4 5 4 3 1 2 2 2 4 5 6 5 5 6 5 3 2 1 2 4 2 8 5 4 6 6 6 5 6 8 6 2 2 3 4 5 3 4
3 3 8 25 36 36 25 7 1 4 4 2 3 3 3 2 2 3 4 4 2 1 2 3 3 4 4 4 6 8 9 6 6 9 6 6 8 7 9 17 21 19 12 5 3 4 4 4 4 1 3 3 4 4 4 2 2 1 4 3 5 4 4 5 5 4 4 3 3 3 2 7 4 1 4 8 8 5 4 8 5 6 7 8 10 11 9 9
7 1 4 19 36 36 20 5 6 10 6 2 3 1 2 2 2 3 3 4 2 2 3 2 3 4 3 4 6 9 11 6 5 9 7 3 5 8 13 21 20 14 10 9 9 10 6 2 4 3 2 3 4 4 3 2 2 4 4 3 5 5 6 4 2 3 2 5 7 5 5 8 4 3 3 6 6 3 4 7 7 8 9 10 13 13 13 12
8 3 3 15 35 35 17 3 5 8 5 4 2 3 3 1 1 2 3 3 1 3 4 2 3 4 3 4 5 6 11 8 3 6 6 2 2 5 14 24 22 15 13 12 14 15 9 3 5 7 6 6 6 6 5 4 3 2 2 5 7 8 10 6 3 4 5 6 7 7 8 6 3 3 4 4 3 2 4 5 6 7 7 7 8 8 6 5
8 4 2 7 18 22 13 4 2 3 4 6 4 4 6 3 2 1 2 2 1 2 2 0 3 4 3 5 6 5 10 8 2 4 7 7 4 2 11 23 25 20 13 9 17 16 4 2 7 9 11 12 12 9 4 7 7 5 7 9 9 9 12 8 5 5 7 3 4 11 12 7 6 5 5 5 4 5 5 6 8 7 6 5 6 6 3 3
6 3 4 3 3 5 4 4 5 2 3 8 6 4 9 8 3 1 2 2 3 4 1 3 2 4 4 8 7 5 10 9 3 4 8 9 3 2 4 13 19 21 13 11 19 14 4 4 10 10 13 15 10 7 5 9 11 13 13 13 11 12 13 11 10 12 8 4 7 14 10 9 13 9 8 9 7 6 6 9 12 10 7 8 9 8 7 6
4 1 5 6 2 2 1 4 9 6 3 6 4 2 8 10 6 5 4 2 2 4 3 0 2 5 8 10 8 5 7 7 5 5 5 5 3 2 1 2 6 12 10 10 15 9 3 7 10 8 13 15 6 6 7 8 10 12 14 15 15 15 15 15 18 18 11 8 15 13 11 13 19 12 10 12 10 9 13 16 17 15 13 13 13 12 11 9
4 1 3 6 3 4 5 6 10 8 5 7 4 2 7 10 11 9 3 3 1 3 3 4 6 8 8 9 8 6 8 8 8 7 5 5 5 3 3 1 2 6 7 6 6 4 3 5 6 7 10 14 8 7 7 9 8 8 11 14 15 17 18 20 21 22 18 15 17 12 9 14 18 9 10 15 19 20 23 22 20 20 22 20 18 16 13 11
3 1 4 5 3 5 8 9 10 7 4 6 6 5 6 9 13 10 4 6 7 4 5 8 8 7 6 6 6 6 8 10 10 10 7 6 3 3 4 4 3 4 5 5 3 3 4 4 3 6 5 10 8 7 7 10 9 8 9 10 12 15 17 19 20 20 16 13 14 13 10 14 12 7 10 19 22 19 18 20 21 25 28 27 22 18 14 12
5 3 4 3 2 6 8 6 6 5 3 5 6 6 8 12 13 10 7 9 9 5 7 11 8 4 3 5 6 6 8 9 7 7 11 11 8 9 8 6 7 7 5 6 4 3 4 3 1 5 3 7 6 9 9 6 3 4 7 8 12 14 14 17 17 13 11 12 14 13 11 13 10 8 11 15 15 13 16 21 25 27 27 26 23 18 15 12
11 5 3 2 1 5 7 4 4 5 4 6 7 6 7 10 9 8 7 8 10 11 10 10 8 4 2 5 8 9 8 7 3 3 9 12 9 9 10 8 11 12 8 6 4 3 6 5 2 4 5 7 6 7 8 6 3 4 9 13 17 16 15 14 9 9 12 13 12 11 12 16 13 7 8 7 8 13 20 25 26 26 25 24 20 17 15 12
Wind_Direction
192 188 188 189 191 193 195 197 199 201 202 202 202 202 203 205 207 208 210 212 213 211 206 203 202 202 207 214 217 216 216 217 220 228 231 223 213 212 205 201 203 203 203 198 187 182 179 178 179 171 165 155 148 160 152 148 156 134 101 96 171 183 199 190 178 191 168 185 194 182 177 163 152 172 182 192 198 181 174 194 201 198 212 210 195 196 191 190
191 187 188 186 187 190 191 195 198 201 204 205 205 206 207 208 210 211 212 212 211 207 199 196 198 201 204 208 213 215 217 217 225 231 224 216 210 208 204 200 201 200 198 192 185 183 182 181 176 169 163 149 141 160 160 155 145 117 103 115 212 202 206 196 182 194 179 182 188 182 182 173 167 169 172 185 197 177 174 201 202 204 209 197 194 203 195 193
191 187 188 186 185 186 188 190 195 199 203 205 207 208 209 211 212 212 211 209 205 200 195 195 197 198 198 203 210 213 215 221 235 232 215 208 208 205 204 203 206 202 194 189 182 180 183 180 173 169 162 145 138 159 160 156 155 119 111 131 237 211 208 222 214 208 204 204 177 179 184 174 171 170 173 184 180 185 202 203 200 207 206 196 193 192 192 196
190 187 188 187 185 184 185 186 190 195 198 202 204 206 208 208 209 206 205 202 198 195 195 197 195 193 195 200 204 208 210 228 242 228 210 204 205 203 203 204 207 203 194 188 179 176 178 175 168 163 153 134 130 155 159 156 171 158 133 174 226 190 178 219 227 217 212 213 186 176 170 172 177 177 182 168 145 248 232 212 209 215 208 198 193 189 191 197
189 186 186 186 185 184 185 184 186 189 192 195 197 199 199 199 198 196 196 195 194 194 195 195 192 191 194 196 199 197 183 183 240 219 207 202 200 203 203 202 202 198 193 188 179 175 175 172 166 158 144 128 125 143 165 155 150 139 154 221 183 160 149 208 213 218 210 199 180 170 160 176 176 184 197 175 165 229 233 224 221 224 220 211 207 199 194 198
190 185 185 186 186 185 185 184 185 186 186 188 189 190 190 190 190 189 192 194 195 196 195 193 190 191 192 194 197 185 174 154 225 202 199 199 199 204 203 201 197 194 193 188 181 177 176 172 168 162 136 115 142 139 156 157 148 141 222 254 161 180 187 150 182 190 186 170 168 173 172 174 166 189 209 197 208 223 237 243 229 229 231 224 219 210 204 203
193 188 185 186 187 187 186 185 185 184 184 184 184 186 187 189 188 189 193 195 196 196 194 192 190 191 192 194 194 186 194 219 222 189 193 195 200 201 198 197 194 194 193 188 184 182 179 174 173 167 125 90 164 146 140 151 144 128 169 196 157 191 191 99 115 156 171 172 174 178 178 180 175 185 213 217 228 231 242 259 236 232 232 228 224 219 219 216
196 192 187 187 189 189 187 186 186 184 183 184 184 186 189 191 190 190 193 195 197 196 194 193 191 192 193 196 193 190 208 221 219 189 191 192 196 195 192 192 192 194 192 191 190 188 184 178 174 167 136 124 171 150 140 133 84 111 155 176 141 139 166 103 95 141 155 168 171 172 182 203 194 188 231 234 236 234 236 243 242 236 229 229 228 227 227 224
198 195 190 189 190 190 190 187 187 185 183 183 185 188 191 193 192 191 194 197 198 196 195 194 194 194 195 198 191 193 213 211 208 199 192 191 192 189 190 190 191 193 190 193 194 194 193 183 178 174 174 182 157 146 153 140 248 182 142 149 135 103 148 124 108 130 140 153 161 164 183 219 204 241 265 252 248 239 234 232 234 234 226 227 229 231 232 232
197 195 193 192 191 192 192 189 188 186 184 184 186 189 192 194 194 192 195 198 198 197 195 195 196 196 198 196 186 195 211 205 213 214 194 193 191 187 189 188 190 192 192 194 194 198 195 188 185 178 173 173 150 141 161 156 192 162 123 112 104 90 137 149 129 125 133 138 156 167 179 233 197 220 258 258 255 235 229 228 228 229 225 224 228 234 236 238
198 196 194 193 193 193 192 192 191 188 185 185 186 189 193 195 195 193 196 200 200 198 195 196 197 199 201 197 191 198 203 202 213 209 194 192 188 184 186 187 188 191 195 195 194 195 193 194 187 177 181 173 149 126 154 167 155 142 124 99 45 49 108 170 150 137 136 122 145 159 158 250 153 199 236 236 247 232 227 228 229 231 232 232 236 240 239 239
199 198 196 194 194 193 193 192 192 191 189 186 186 189 192 196 196 193 196 200 201 198 197 197 197 200 203 205 208 208 202 203 207 199 191 187 182 181 183 184 187 191 196 196 194 188 186 190 186 185 174 156 147 112 143 149 136 128 119 103 356 11 40 276 161 166 169 127 138 132 137 268 217 228 237 233 231 231 225 229 232 234 238 240 243 243 241 241
201 198 198 197 195 195 194 191 191 192 192 189 186 188 191 195 196 194 196 200 201 198 198 198 198 201 201 212 218 212 208 205 202 194 187 183 180 182 182 182 184 188 193 195 193 185 181 184 187 187 159 149 139 118 135 127 119 113 81 100 36 14 355 284 101 189 173 135 160 133 223 269 251 241 237 223 224 233 233 232 232 236 240 243 244 243 243 243
203 199 197 198 198 197 195 192 191 192 192 190 187 188 190 193 195 195 195 199 201 199 198 198 199 200 202 217 226 214 211 203 196 190 185 184 182 181 181 183 184 186 192 195 190 185 184 185 183 172 150 144 128 120 115 71 83 92 58 59 60 101 272 299 2 167 153 185 219 120 195 264 272 263 246 229 241 251 249 242 237 238 240 243 243 244 247 247
204 201 197 198 200 198 196 193 191 192 193 191 187 188 189 191 194 195 195 199 201 199 198 198 198 197 207 227 232 215 210 202 192 187 184 186 185 183 181 185 189 187 189 191 186 184 183 178 168 144 126 132 127 116 69 21 28 41 99 329 349 159 259 309 294 177 159 204 186 110 208 268 275 283 286 235 250 252 246 245 242 241 242 244 246 246 250 252
202 202 199 199 200 199 197 193 192 193 193 191 188 187 188 191 192 193 194 196 198 199 195 197 198 192 201 228 223 214 207 201 190 185 185 186 186 185 183 187 191 188 184 179 180 180 173 160 142 120 118 129 125 106 63 46 355 359 103 182 242 165 259 314 286 222 176 142 18 97 219 262 288 288 12 95 282 256 245 247 244 245 248 248 249 250 252 255
201 202 202 200 200 200 198 195 193 193 192 191 187 184 185 188 189 190 191 191 193 192 189 192 192 193 229 230 216 210 202 197 188 185 186 185 185 184 182 183 182 183 176 167 171 172 165 149 133 124 109 110 110 100 94 47 269 287 59 129 208 182 189 279 295 266 130 126 257 18 242 248 275 284 268 269 295 289 275 269 264 261 258 255 253 253 253 254
203 203 204 202 201 200 199 197 194 193 192 190 187 183 182 184 186 186 184 183 177 170 180 187 173 180 241 226 212 204 197 193 186 183 185 183 182 181 180 178 173 172 159 153 164 165 158 133 122 128 52 67 132 121 139 208 196 189 179 147 196 202 194 235 256 239 93 90 219 163 264 262 270 279 272 270 277 281 280 278 277 273 268 264 259 256 255 254
206 207 207 204 202 201 201 199 195 193 190 189 186 180 175 173 173 176 176 172 167 156 175 187 174 162 280 211 201 199 192 187 183 182 183 181 178 179 179 173 170 165 151 142 161 162 144 101 100 126 135 163 190 168 171 196 173 171 175 144 153 169 223 239 250 266 158 127 219 213 226 264 272 279 278 275 278 281 280 279 277 274 270 268 264 261 259 256
208 208 209 207 205 203 203 199 196 192 188 189 185 175 166 158 149 160 172 172 174 167 88 186 186 197 349 189 189 188 181 179 181 182 181 180 177 175 171 164 163 157 150 150 160 159 127 133 172 185 187 189 190 163 137 143 136 138 131 112 139 159 235 249 274 307 48 149 248 241 235 264 268 273 276 277 283 282 275 274 272 270 269 268 266 265 263 261
209 207 208 209 208 207 205 200 195 190 187 189 185 177 169 162 152 158 169 174 187 182 341 192 189 207 302 181 181 175 167 172 181 183 182 182 176 171 168 158 149 143 179 142 121 111 116 163 209 209 193 175 156 141 110 91 90 101 128 126 119 165 225 252 251 314 358 168 268 349 304 266 261 266 272 276 282 271 262 260 263 266 268 268 268 268 269 270
207 208 208 210 211 210 207 200 195 190 187 188 187 183 179 175 173 179 171 172 195 190 263 197 188 207 249 188 179 170 162 164 180 186 183 179 175 176 173 152 136 150 188 115 108 100 130 210 231 210 163 116 96 109 98 86 87 86 116 126 134 189 240 292 299 328 10 68 268 355 343 273 261 261 266 266 261 261 262 257 261 266 268 269 270 272 276 278
204 205 207 213 214 211 207 199 194 191 188 189 189 186 181 179 177 180 175 163 186 189 206 195 191 203 206 181 180 175 169 162 175 186 183 178 178 179 168 145 127 141 151 162 147 142 172 248 236 171 145 119 91 87 96 86 83 88 107 128 166 231 142 239 288 328 8 62 262 346 324 282 276 275 267 261 256 262 268 265 265 264 265 269 271 273 277 279
203 200 205 212 214 213 206 196 193 193 191 191 191 187 182 181 178 175 171 121 153 187 195 193 194 200 198 180 182 185 184 176 178 183 183 181 176 172 170 150 123 136 169 173 153 156 201 258 152 127 133 131 119 121 124 120 95 68 137 138 161 200 172 190 274 341 357 15 39 29 330 293 302 315 283 270 266 268 271 271 270 266 266 271 274 276 279 284
203 202 205 209 216 216 205 197 195 192 191 191 190 186 182 181 177 172 162 75 60 189 192 194 197 204 201 188 185 186 184 186 186 183 183 183 175 163 162 155 140 166 183 144 133 163 224 252 137 122 90 114 126 154 170 150 134 272 216 173 172 173 164 162 56 58 34 350 350 26 346 287 314 316 274 286 326 299 286 291 282 277 278 279 281 296 304 300
202 203 204 208 218 215 204 201 196 190 191 192 187 182 182 179 172 170 154 48 284 203 176 187 193 198 196 192 180 171 171 209 192 184 182 182 181 166 150 152 119 164 173 141 129 174 226 58 116 127 111 109 123 159 192 152 125 195 233 167 147 132 129 135 113 88 107 248 309 41 126 264 310 296 265 294 325 304 298 298 280 276 281 291 297 316 324 317
200 201 202 209 217 214 204 198 192 189 191 190 183 179 181 176 168 167 140 30 274 186 152 177 182 184 189 186 174 162 154 182 168 181 182 179 185 173 162 177 97 142 171 137 140 222 148 88 70 95 99 102 127 165 198 146 125 200 220 125 121 116 129 144 115 102 200 231 326 14 121 236 293 264 264 314 324 300 290 284 276 277 286 298 297 302 299 215
199 197 199 207 216 219 208 198 194 190 188 184 179 177 179 174 166 157 123 47 215 153 146 176 171 176 180 174 176 170 141 154 146 181 183 177 182 172 171 195 152 143 155 129 177 258 95 149 162 123 96 116 174 205 179 130 109 228 186 116 119 120 126 122 99 96 18 4 313 315 129 189 273 272 296 341 314 287 278 271 277 290 299 303 283 224 158 153
197 195 200 205 215 222 211 205 198 189 183 178 175 176 175 169 160 132 98 190 168 118 145 165 162 173 169 164 178 173 140 155 142 168 175 174 180 167 145 179 143 114 57 81 162 226 36 176 196 138 126 176 198 244 158 124 89 167 137 94 78 75 81 80 88 98 44 5 256 253 189 193 267 285 309 349 272 261 267 272 280 298 307 311 130 147 146 140
195 195 199 201 209 212 206 205 195 184 177 171 173 174 167 161 150 123 183 215 157 111 136 158 170 173 156 151 180 172 139 148 120 141 157 167 170 146 114 138 125 103 41 33 91 233 340 31 58 97 139 172 137 78 64 86 129 136 115 73 62 36 37 47 51 82 63 297 255 246 228 167 271 281 259 214 220 223 247 292 299 328 356 65 120 131 139 136
195 194 195 201 211 211 202 195 184 176 171 167 168 165 156 147 115 146 191 201 120 109 110 148 180 161 157 163 174 166 113 42 134 141 146 153 151 134 118 129 105 83 48 34 47 328 359 53 12 356 120 130 105 66 41 60 111 117 90 86 86 0 12 24 358 45 121 255 260 264 254 157 222 260 252 242 254 232 215 267 283 325 8 72 119 125 131 133
194 192 195 204 217 216 201 188 176 169 166 163 161 157 150 129 194 193 201 161 147 183 171 180 203 174 169 165 150 150 116 84 164 151 145 144 151 168 158 167 154 104 151 184 138 343 20 52 305 338 261 168 115 79 49 22 37 79 92 104 97 355 9 350 309 347 221 243 271 285 242 206 233 246 259 267 269 245 220 230 254 291 338 80 122 129 131 132
192 193 196 205 217 211 197 181 169 165 162 160 158 152 137 131 195 208 214 181 198 202 158 161 164 149 153 148 150 160 120 136 185 148 128 134 153 205 235 196 148 123 179 180 124 109 304 310 309 60 274 222 162 126 129 238 225 133 135 130 129 127 111 260 264 277 261 257 297 295 249 260 269 261 252 253 260 264 255 255 264 284 311 77 130 140 139 137
190 191 192 202 209 197 187 174 165 165 161 158 156 147 135 178 199 206 205 208 246 42 109 134 114 120 149 157 184 174 120 139 174 123 106 123 143 202 232 228 161 100 111 146 145 164 181 274 229 170 211 199 182 169 152 144 146 177 160 131 146 157 157 205 216 211 246 272 305 298 256 201 223 277 258 257 276 288 284 282 279 275 278 233 147 155 155 148
182 187 189 196 192 182 177 171 165 165 163 158 156 160 176 195 209 202 194 196 213 70 59 101 116 132 166 109 223 191 147 175 173 121 144 166 173 193 196 204 195 127 128 159 200 166 166 247 255 299 298 159 170 209 129 108 106 233 118 107 160 183 143 140 182 177 178 316 302 261 238 214 216 280 280 283 299 293 284 290 287 265 252 235 197 177 171 160
172 180 188 189 180 172 171 171 166 166 167 162 159 185 196 206 198 186 179 150 150 137 101 87 96 134 166 96 197 216 237 112 158 150 182 195 208 197 191 199 192 180 165 158 176 162 153 258 303 353 10 96 129 206 107 113 173 170 126 171 211 171 114 113 212 54 80 250 271 229 253 288 323 295 291 307 305 294 291 291 282 266 240 230 226 190 177 172
172 173 183 186 175 166 167 171 168 168 172 170 181 192 206 215 183 149 151 130 135 139 125 136 163 143 163 163 188 200 191 115 152 171 189 195 238 198 195 224 192 188 192 152 162 201 154 193 319 35 115 340 9 84 58 43 110 125 174 206 189 122 88 109 183 1 44 244 275 271 245 286 322 277 315 345 273 276 290 286 281 277 256 234 216 184 176 177
170 169 181 183 173 164 164 168 168 170 172 175 205 206 211 207 189 131 142 134 132 141 139 165 169 139 169 177 186 186 174 165 175 185 174 185 244 199 174 205 196 190 202 181 149 207 141 140 312 15 157 306 357 96 75 12 51 123 174 168 122 141 172 101 149 179 134 234 278 299 276 264 207 230 301 295 219 237 259 267 275 273 264 246 210 191 188 192
165 168 183 181 171 163 163 164 164 167 170 176 204 216 206 175 211 169 154 142 130 143 154 182 167 111 172 173 168 176 181 181 173 178 180 183 234 207 175 188 193 189 198 184 156 198 143 149 254 309 248 304 13 130 193 207 39 61 103 106 85 134 166 161 154 166 170 195 250 307 321 268 225 215 213 222 222 214 228 249 262 265 270 267 241 233 227 213
165 163 182 178 170 161 158 158 158 164 176 199 200 213 115 154 188 175 163 150 135 158 164 186 167 139 165 167 158 171 184 181 168 178 201 186 205 235 194 189 172 176 184 159 125 174 140 165 208 309 337 218 197 217 190 168 146 124 131 158 184 83 111 158 142 123 140 159 192 277 297 267 248 207 192 217 234 220 211 230 265 278 291 295 272 249 234 212
165 157 171 173 171 166 158 155 163 175 194 214 205 200 16 179 139 165 172 160 138 147 146 156 160 155 156 153 170 178 164 160 173 184 206 196 203 231 207 189 162 145 154 133 161 178 152 168 169 138 280 205 224 256 188 175 173 169 180 189 184 158 125 153 233 230 121 148 169 177 257 264 252 205 200 213 222 222 213 221 258 286 307 324 77 106 111 158
162 139 165 171 175 172 161 155 184 196 208 220 199 130 92 173 141 156 174 169 142 94 122 141 149 155 163 163 171 170 156 158 180 186 209 213 208 214 205 185 162 153 159 167 191 167 121 111 124 154 220 214 242 287 207 194 159 145 210 204 173 164 142 153 204 220 126 164 157 122 251 273 261 196 207 228 242 252 226 210 229 308 57 87 96 99 97 144
181 61 145 170 178 173 162 157 242 201 232 220 141 97 84 102 115 132 162 180 176 126 124 152 161 166 179 169 158 163 168 176 190 195 207 222 217 214 193 175 162 159 163 163 169 155 122 116 128 201 302 310 311 335 19 51 85 182 243 186 156 182 151 143 178 173 156 191 156 105 264 271 279 212 235 260 279 294 213 185 151 87 83 87 92 96 95 106
191 153 139 174 178 174 168 177 197 200 215 119 109 116 80 96 140 133 157 187 186 143 142 163 183 176 169 146 150 173 181 177 202 208 207 217 218 206 188 179 169 165 178 188 180 173 178 166 130 124 12 349 333 337 336 294 197 207 225 163 156 148 110 106 129 113 189 215 165 157 238 252 269 333 312 293 310 320 193 168 126 99 91 92 96 96 96 100
175 200 240 187 180 179 182 193 187 199 188 112 134 186 145 102 231 172 155 160 157 150 153 184 181 146 132 145 143 172 185 179 184 201 204 237 237 202 189 186 180 181 199 198 172 165 179 188 146 156 180 197 208 213 221 212 178 195 198 166 173 157 144 162 138 123 230 224 159 185 236 241 258 314 313 312 327 266 204 167 138 120 108 113 121 113 105 113
159 180 245 201 186 190 203 218 155 171 166 159 182 184 166 183 243 214 151 144 172 149 119 9 163 128 117 154 145 166 199 203 155 160 195 211 220 234 195 189 189 193 202 181 160 156 146 203 189 193 201 205 210 208 165 126 141 201 205 179 181 181 175 171 134 171 212 176 168 221 231 233 240 247 259 262 241 233 223 182 176 166 144 162 175 168 179 219
153 176 180 176 194 199 226 232 197 174 159 176 184 182 184 191 191 157 181 197 199 175 101 19 131 158 166 164 158 178 201 207 170 156 196 203 200 352 190 188 194 198 193 167 165 155 89 214 208 208 218 223 217 198 166 142 167 198 199 185 186 188 181 177 193 210 193 134 235 232 208 229 243 220 220 244 235 237 241 216 214 218 210 212 214 215 229 246
159 176 175 174 181 177 209 215 199 198 184 181 181 159 185 192 186 178 195 213 190 180 182 305 212 202 183 168 166 173 185 199 206 197 197 189 167 56 118 183 207 200 186 168 172 157 110 213 212 199 224 239 218 161 179 176 181 199 197 191 191 187 183 191 210 219 191 181 238 230 166 210 241 222 206 230 228 232 245 243 244 249 244 235 232 236 245 252
174 170 167 172 184 182 171 160 168 183 197 191 201 186 178 189 197 196 163 97 172 220 196 200 219 214 194 175 169 169 172 184 208 214 186 162 169 145 131 158 222 193 171 155 177 174 152 215 213 178 220 246 223 166 182 186 187 207 203 195 191 189 193 200 212 222 211 208 237 236 184 221 243 221 199 228 234 238 249 254 257 258 252 247 242 242 248 253
174 194 168 167 175 163 154 147 152 165 184 189 211 223 196 195 200 202 172 152 186 208 190 204 216 199 185 180 175 192 196 187 199 207 173 145 169 184 175 188 177 161 161 158 179 196 185 220 193 142 204 256 230 186 197 196 193 209 212 202 195 195 202 210 217 222 218 220 242 248 243 251 250 194 201 234 236 235 243 247 249 252 251 248 244 244 246 247
182 167 154 151 163 156 155 153 153 159 172 188 200 199 203 214 208 197 200 203 203 196 188 204 207 145 129 177 190 221 219 195 203 206 178 170 182 189 194 186 152 145 169 181 169 162 184 217 66 113 183 252 226 189 195 187 167 230 239 216 201 200 208 215 218 218 208 209 229 240 248 256 244 184 205 231 223 214 229 236 240 245 246 244 242 240 238 235
207 201 177 151 153 162 163 155 157 173 183 191 194 184 195 216 203 180 200 226 226 224 214 199 185 156 148 186 205 229 222 194 211 222 194 201 206 198 202 190 162 159 164 170 170 162 167 177 153 142 188 247 239 175 158 123 96 251 243 219 206 206 213 216 220 227 215 204 213 222 229 242 241 198 201 223 193 203 226 234 239 241 238 236 236 230 224 220